Regional Weather Roundup
Issued by NWS

Home | Current Version | Previous Version | Graphics & Text | Print | Product List | Glossary On
Versions: 1 2 3 4 5 6 7 8 9 10 11 12 13 14 15 16 17 18 19 20 21 22 23 24 25 26 27 28 29 30 31 32 33 34 35 36 37 38 39 40 41 42 43 44 45 46 47 48 49 50
000
ASUS43 KDMX 291006
RWRIA

WEATHER ROUNDUP FOR IOWA
NATIONAL WEATHER SERVICE DES MOINES IA
500 AM CDT THU JUN 29 2017

NOTE: "FAIR" INDICATES FEW OR NO CLOUDS BELOW 12,000 FEET WITH NO
SIGNIFICANT WEATHER AND/OR OBSTRUCTIONS TO VISIBILITY.

* - THESE STATIONS ARE NOT NWS STATIONS...THUS NOT UNDER NWS
QUALITY CONTROL.  THEY ALSO DO NOT REPORT WEATHER SUCH
AS PRECIPITATION OR FOG.

IAZ001>003-012>014-020>022-031>034-043>046-291100-
   NORTHWEST IOWA

CITY           SKY/WX    TMP DP  RH WIND       PRES   REMARKS
CARROLL *      PTCLDY    68  66  94 W5        29.76R
CHEROKEE *     PTCLDY    61  61 100 SE3       29.77R
DENISON *      CLOUDY    66  66 100 NE6       29.77R
LE MARS *      CLOUDY    63  59  88 CALM      29.76F
ORANGE CITY *  CLOUDY    61  61 100 SE5       29.77R
SHELDON *      PTCLDY    59  57  94 SE3       29.76R
SIOUX CITY     CLOUDY    65  62  90 E8        29.74F
SPENCER        CLEAR     60  59  96 S5        29.77R
STORM LAKE *   CLOUDY    63  61  94 CALM      29.78R
$$

IAZ055>058-069>071-079>083-090>094-291100-
   SOUTHWEST IOWA

CITY           SKY/WX    TMP DP  RH WIND       PRES   REMARKS
ATLANTIC *     MOCLDY    72  70  94 S9        29.77S
AUDUBON *      MOCLDY    68  64  88 S6        29.78R
CLARINDA *     CLOUDY    72  66  83 S14G20    29.82R
COUNCIL BLFS * MOCLDY    72  72 100 S8        29.76R
CRESTON *      MOCLDY    68  66  94 S12       29.80S
HARLAN  *      CLOUDY    66  66 100 SW3       29.80R
LAMONI         MOCLDY    70  65  84 SW8       29.79R
RED OAK *      CLOUDY    72  68  88 S12       29.78S
SHENANDOAH *   CLOUDY    72  68  88 S16G22    29.78R
$$

IAZ047>049-059>061-072>074-084-291100-
   CENTRAL IOWA

CITY           SKY/WX    TMP DP  RH WIND       PRES   REMARKS
AMES           CLOUDY    67  67 100 SW8       29.75R
ANKENY *       CLOUDY    68  66  94 W5        29.76S
BOONE *        MOCLDY    66  66 100 SW8       29.75R
CHARITON *     CLOUDY    66  64  94 MISG      29.78S
DES MOINES     CLOUDY    69  67  93 SW8       29.75R
GRINNELL*      CLOUDY    65  62  91 S12       29.77R
KNOXVILLE *    CLOUDY    66  63  88 SW8       29.76S
MARSHALLTOWN   PTCLDY    66  65  96 SW8       29.73S
NEWTON *       PTCLDY    64  63  94 S8        29.76S
PELLA *        CLOUDY    66  64  93 S7        29.78R
PERRY *          N/A     67  66  97 SE6       29.76R
$$

IAZ004>006-015-016-023>025-035-036-291100-
   NORTH CENTRAL IOWA

CITY           SKY/WX    TMP DP  RH WIND       PRES   REMARKS
ALGONA *       CLEAR     61  61 100 W7        29.76R FOG
CLARION *        N/A     63  63 100 W3        29.75R FOG
ESTHERVILLE    CLEAR     59  59 100 SW7       29.76R
FORT DODGE *     N/A     63  61  94 CALM      29.76R VSB 3/4
MASON CITY     CLEAR     62  60  93 W9        29.75R
FOREST CITY *    N/A     61  54  77 CALM      29.74R
WEBSTER CITY * PTCLDY    63  63 100 SW7       29.73R FOG
IOWA FALLS *     N/A     65  64  96 W7        29.75R FOG
$$

IAZ007>011-017>019-026>030-037>042-050>054-066-291100-
   NORTHEAST IOWA

CITY           SKY/WX    TMP DP  RH WIND       PRES   REMARKS
CEDAR RAPIDS   MOCLDY    66  64  93 SW14      29.75R
CHARLES CITY * CLEAR     63  63 100 S6        29.72S FOG
CLINTON *      CLOUDY    69  61  75 SW16      29.76R
DECORAH *      PTCLDY    64  63  94 SW5       29.69R
DUBUQUE        PTCLDY    66  63  90 SW14      29.74R
MONTICELLO *   CLOUDY    68  63  83 SW9G17    29.73S
OELWEIN *      PTCLDY    64  64 100 SW7       29.74R
WATERLOO       CLOUDY    66  64  93 W8        29.71S
$$

IAZ064-065-067-068-078-291100-
   EAST CENTRAL IOWA

CITY           SKY/WX    TMP DP  RH WIND       PRES   REMARKS
IOWA CITY      CLOUDY    70  61  73 SW14G21   29.78R
MT. PLEASANT * CLOUDY    68  59  72 SW18G26   29.80S
MUSCATINE *    CLOUDY    70  59  68 SW17G24   29.76S
QUAD CITIES    CLOUDY    70  59  68 SW15G24   29.76R
$$

IAZ062-063-075>077-085>089-095>099-291100-
   SOUTHEAST IOWA

CITY           SKY/WX    TMP DP  RH WIND       PRES   REMARKS
BURLINGTON     CLOUDY    67  61  81 SW18G28   29.79R
FAIRFIELD *    CLOUDY    68  61  77 SW17G25   29.79R
FORT MADISON * CLOUDY    66  63  88 SW16G24   29.81S
KEOKUK *       CLOUDY    66  61  82 SW20      29.80F
OSKALOOSA *      N/A     65  62  88 SW13      29.78S
CENTERVILLE *    N/A     64  64 100 S15       29.83R
OTTUMWA        CLOUDY    67  64  90 SW18G24   29.78R
WASHINGTON *   CLOUDY    68  63  83 SW17G29   29.79R
$$

ABBREVIATIONS USED IN REMARKS
   TC - TEMPERATURES IN CELSIUS
  WCI - WIND CHILL INDEX
   HX - HEAT INDEX
  VSB - VISIBILITY
$$





USA.gov is the U.S. government's official web portal to all federal, state and local government web resources and services.